Data supplied by UK-AIR on 5/4/2008
All Data GMT hour ending 
Status: R =Ratified P=Provisional,P*=As supplied
,,Sheffield Tinsley,,,,,,,,,,,,,,,,,,,,,,,
Date,time,"Carbon monoxide",status,unit,"Nitric oxide",status,unit,"Nitrogen dioxide",status,unit,"Nitrogen oxides as nitrogen dioxide",status,unit
 
01-01-2003,01:00,,,,,,,,,,,,
01-01-2003,02:00,,,,6,R,ugm-3,13,R,ugm-3,23,R,ugm-3
01-01-2003,03:00,,,,6,R,ugm-3,21,R,ugm-3,31,R,ugm-3
01-01-2003,04:00,,,,6,R,ugm-3,23,R,ugm-3,32,R,ugm-3
01-01-2003,05:00,,,,6,R,ugm-3,15,R,ugm-3,25,R,ugm-3
01-01-2003,06:00,,,,6,R,ugm-3,17,R,ugm-3,27,R,ugm-3
01-01-2003,07:00,,,,6,R,ugm-3,13,R,ugm-3,23,R,ugm-3
01-01-2003,08:00,,,,6,R,ugm-3,19,R,ugm-3,29,R,ugm-3
01-01-2003,09:00,,,,6,R,ugm-3,17,R,ugm-3,27,R,ugm-3
01-01-2003,10:00,,,,8,R,ugm-3,21,R,ugm-3,32,R,ugm-3
01-01-2003,11:00,,,,14,R,ugm-3,25,R,ugm-3,46,R,ugm-3
01-01-2003,12:00,,,,20,R,ugm-3,32,R,ugm-3,63,R,ugm-3
01-01-2003,13:00,,,,49,R,ugm-3,36,R,ugm-3,111,R,ugm-3
01-01-2003,14:00,,,,44,R,ugm-3,40,R,ugm-3,107,R,ugm-3
01-01-2003,15:00,,,,44,R,ugm-3,40,R,ugm-3,107,R,ugm-3
01-01-2003,16:00,,,,65,R,ugm-3,48,R,ugm-3,147,R,ugm-3
01-01-2003,17:00,,,,118,R,ugm-3,59,R,ugm-3,239,R,ugm-3
01-01-2003,18:00,,,,99,R,ugm-3,50,R,ugm-3,201,R,ugm-3
01-01-2003,19:00,,,,126,R,ugm-3,55,R,ugm-3,248,R,ugm-3
01-01-2003,20:00,,,,114,R,ugm-3,67,R,ugm-3,241,R,ugm-3
01-01-2003,21:00,,,,38,R,ugm-3,65,R,ugm-3,122,R,ugm-3
01-01-2003,22:00,,,,16,R,ugm-3,38,R,ugm-3,63,R,ugm-3
01-01-2003,23:00,,,,9,R,ugm-3,32,R,ugm-3,46,R,ugm-3
01-01-2003,24:00,,,,11,R,ugm-3,36,R,ugm-3,53,R,ugm-3
02-01-2003,01:00,,,,9,R,ugm-3,29,R,ugm-3,42,R,ugm-3
02-01-2003,02:00,,,,6,R,ugm-3,23,R,ugm-3,32,R,ugm-3
02-01-2003,03:00,,,,8,R,ugm-3,32,R,ugm-3,44,R,ugm-3
02-01-2003,04:00,,,,10,R,ugm-3,29,R,ugm-3,44,R,ugm-3
02-01-2003,05:00,,,,16,R,ugm-3,38,R,ugm-3,63,R,ugm-3
02-01-2003,06:00,,,,26,R,ugm-3,48,R,ugm-3,88,R,ugm-3
02-01-2003,07:00,,,,54,R,ugm-3,65,R,ugm-3,147,R,ugm-3
02-01-2003,08:00,,,,101,R,ugm-3,65,R,ugm-3,220,R,ugm-3
02-01-2003,09:00,,,,144,R,ugm-3,74,R,ugm-3,294,R,ugm-3
02-01-2003,10:00,,,,231,R,ugm-3,90,R,ugm-3,443,R,ugm-3
02-01-2003,11:00,,,,309,R,ugm-3,96,R,ugm-3,567,R,ugm-3
02-01-2003,12:00,,,,80,R,ugm-3,61,R,ugm-3,183,R,ugm-3
02-01-2003,13:00,,,,86,R,ugm-3,59,R,ugm-3,191,R,ugm-3
02-01-2003,14:00,,,,79,R,ugm-3,55,R,ugm-3,176,R,ugm-3
02-01-2003,15:00,,,,51,R,ugm-3,42,R,ugm-3,120,R,ugm-3
02-01-2003,16:00,,,,26,R,ugm-3,27,R,ugm-3,67,R,ugm-3
02-01-2003,17:00,,,,11,R,ugm-3,21,R,ugm-3,38,R,ugm-3
02-01-2003,18:00,,,,13,R,ugm-3,25,R,ugm-3,44,R,ugm-3
02-01-2003,19:00,,,,13,R,ugm-3,29,R,ugm-3,48,R,ugm-3
02-01-2003,20:00,,,,13,R,ugm-3,27,R,ugm-3,46,R,ugm-3
02-01-2003,21:00,,,,10,R,ugm-3,25,R,ugm-3,40,R,ugm-3
02-01-2003,22:00,,,,9,R,ugm-3,23,R,ugm-3,36,R,ugm-3
02-01-2003,23:00,,,,9,R,ugm-3,25,R,ugm-3,38,R,ugm-3
02-01-2003,24:00,,,,6,R,ugm-3,19,R,ugm-3,29,R,ugm-3
03-01-2003,01:00,,,,6,R,ugm-3,19,R,ugm-3,29,R,ugm-3
03-01-2003,02:00,,,,6,R,ugm-3,11,R,ugm-3,21,R,ugm-3
03-01-2003,03:00,,,,5,R,ugm-3,11,R,ugm-3,19,R,ugm-3
03-01-2003,04:00,,,,5,R,ugm-3,4,R,ugm-3,11,R,ugm-3
03-01-2003,05:00,,,,6,R,ugm-3,4,R,ugm-3,13,R,ugm-3
03-01-2003,06:00,,,,6,R,ugm-3,13,R,ugm-3,23,R,ugm-3
03-01-2003,07:00,,,,8,R,ugm-3,17,R,ugm-3,29,R,ugm-3
03-01-2003,08:00,,,,8,R,ugm-3,32,R,ugm-3,44,R,ugm-3
03-01-2003,09:00,,,,9,R,ugm-3,29,R,ugm-3,42,R,ugm-3
03-01-2003,10:00,,,,13,R,ugm-3,40,R,ugm-3,59,R,ugm-3
03-01-2003,11:00,,,,,,,,,,,,
03-01-2003,12:00,,,,,,,,,,,,
03-01-2003,13:00,,,,14,R,ugm-3,36,R,ugm-3,57,R,ugm-3
03-01-2003,14:00,,,,13,R,ugm-3,31,R,ugm-3,50,R,ugm-3
03-01-2003,15:00,,,,11,R,ugm-3,31,R,ugm-3,48,R,ugm-3
03-01-2003,16:00,,,,11,R,ugm-3,34,R,ugm-3,52,R,ugm-3
03-01-2003,17:00,,,,11,R,ugm-3,42,R,ugm-3,59,R,ugm-3
03-01-2003,18:00,,,,10,R,ugm-3,46,R,ugm-3,61,R,ugm-3
03-01-2003,19:00,,,,25,R,ugm-3,61,R,ugm-3,99,R,ugm-3
03-01-2003,20:00,,,,8,R,ugm-3,40,R,ugm-3,52,R,ugm-3
03-01-2003,21:00,,,,6,R,ugm-3,32,R,ugm-3,42,R,ugm-3
03-01-2003,22:00,,,,8,R,ugm-3,27,R,ugm-3,38,R,ugm-3
03-01-2003,23:00,,,,10,R,ugm-3,34,R,ugm-3,50,R,ugm-3
03-01-2003,24:00,,,,9,R,ugm-3,32,R,ugm-3,46,R,ugm-3
04-01-2003,01:00,,,,6,R,ugm-3,31,R,ugm-3,40,R,ugm-3
04-01-2003,02:00,,,,6,R,ugm-3,13,R,ugm-3,23,R,ugm-3
04-01-2003,03:00,,,,6,R,ugm-3,13,R,ugm-3,23,R,ugm-3
04-01-2003,04:00,,,,6,R,ugm-3,11,R,ugm-3,21,R,ugm-3
04-01-2003,05:00,,,,6,R,ugm-3,6,R,ugm-3,15,R,ugm-3
04-01-2003,06:00,,,,6,R,ugm-3,13,R,ugm-3,23,R,ugm-3
04-01-2003,07:00,,,,6,R,ugm-3,13,R,ugm-3,23,R,ugm-3
04-01-2003,08:00,,,,8,R,ugm-3,29,R,ugm-3,40,R,ugm-3
04-01-2003,09:00,,,,9,R,ugm-3,29,R,ugm-3,42,R,ugm-3
04-01-2003,10:00,,,,43,R,ugm-3,57,R,ugm-3,122,R,ugm-3
04-01-2003,11:00,,,,40,R,ugm-3,52,R,ugm-3,113,R,ugm-3
04-01-2003,12:00,,,,25,R,ugm-3,40,R,ugm-3,78,R,ugm-3
04-01-2003,13:00,,,,23,R,ugm-3,42,R,ugm-3,76,R,ugm-3
04-01-2003,14:00,,,,19,R,ugm-3,34,R,ugm-3,63,R,ugm-3
04-01-2003,15:00,,,,11,R,ugm-3,29,R,ugm-3,46,R,ugm-3
04-01-2003,16:00,,,,15,R,ugm-3,48,R,ugm-3,71,R,ugm-3
04-01-2003,17:00,,,,23,R,ugm-3,59,R,ugm-3,94,R,ugm-3
04-01-2003,18:00,,,,34,R,ugm-3,67,R,ugm-3,118,R,ugm-3
04-01-2003,19:00,,,,50,R,ugm-3,69,R,ugm-3,145,R,ugm-3
04-01-2003,20:00,,,,60,R,ugm-3,69,R,ugm-3,160,R,ugm-3
04-01-2003,21:00,,,,46,R,ugm-3,69,R,ugm-3,139,R,ugm-3
04-01-2003,22:00,,,,36,R,ugm-3,69,R,ugm-3,124,R,ugm-3
04-01-2003,23:00,,,,30,R,ugm-3,65,R,ugm-3,111,R,ugm-3
04-01-2003,24:00,,,,44,R,ugm-3,71,R,ugm-3,138,R,ugm-3
05-01-2003,01:00,,,,23,R,ugm-3,61,R,ugm-3,96,R,ugm-3
05-01-2003,02:00,,,,13,R,ugm-3,52,R,ugm-3,71,R,ugm-3
05-01-2003,03:00,,,,11,R,ugm-3,46,R,ugm-3,63,R,ugm-3
05-01-2003,04:00,,,,14,R,ugm-3,57,R,ugm-3,78,R,ugm-3
05-01-2003,05:00,,,,23,R,ugm-3,57,R,ugm-3,92,R,ugm-3
05-01-2003,06:00,,,,29,R,ugm-3,61,R,ugm-3,105,R,ugm-3
05-01-2003,07:00,,,,35,R,ugm-3,63,R,ugm-3,117,R,ugm-3
05-01-2003,08:00,,,,59,R,ugm-3,67,R,ugm-3,157,R,ugm-3
05-01-2003,09:00,,,,64,R,ugm-3,67,R,ugm-3,164,R,ugm-3
05-01-2003,10:00,,,,61,R,ugm-3,67,R,ugm-3,160,R,ugm-3
05-01-2003,11:00,,,,65,R,ugm-3,65,R,ugm-3,164,R,ugm-3
05-01-2003,12:00,,,,29,R,ugm-3,44,R,ugm-3,88,R,ugm-3
05-01-2003,13:00,,,,13,R,ugm-3,27,R,ugm-3,46,R,ugm-3
05-01-2003,14:00,,,,13,R,ugm-3,34,R,ugm-3,53,R,ugm-3
05-01-2003,15:00,,,,21,R,ugm-3,53,R,ugm-3,86,R,ugm-3
05-01-2003,16:00,,,,39,R,ugm-3,69,R,ugm-3,128,R,ugm-3
05-01-2003,17:00,,,,9,R,ugm-3,32,R,ugm-3,46,R,ugm-3
05-01-2003,18:00,,,,11,R,ugm-3,50,R,ugm-3,67,R,ugm-3
05-01-2003,19:00,,,,21,R,ugm-3,59,R,ugm-3,92,R,ugm-3
05-01-2003,20:00,,,,28,R,ugm-3,67,R,ugm-3,109,R,ugm-3
05-01-2003,21:00,,,,16,R,ugm-3,57,R,ugm-3,82,R,ugm-3
05-01-2003,22:00,,,,11,R,ugm-3,57,R,ugm-3,74,R,ugm-3
05-01-2003,23:00,,,,15,R,ugm-3,55,R,ugm-3,78,R,ugm-3
05-01-2003,24:00,,,,28,R,ugm-3,59,R,ugm-3,101,R,ugm-3
06-01-2003,01:00,,,,30,R,ugm-3,55,R,ugm-3,101,R,ugm-3
06-01-2003,02:00,,,,9,R,ugm-3,50,R,ugm-3,63,R,ugm-3
06-01-2003,03:00,,,,25,R,ugm-3,59,R,ugm-3,97,R,ugm-3
06-01-2003,04:00,,,,3,R,ugm-3,27,R,ugm-3,31,R,ugm-3
06-01-2003,05:00,,,,3,R,ugm-3,23,R,ugm-3,27,R,ugm-3
06-01-2003,06:00,,,,3,R,ugm-3,29,R,ugm-3,32,R,ugm-3
06-01-2003,07:00,,,,9,R,ugm-3,34,R,ugm-3,48,R,ugm-3
06-01-2003,08:00,,,,49,R,ugm-3,69,R,ugm-3,143,R,ugm-3
06-01-2003,09:00,,,,108,R,ugm-3,80,R,ugm-3,244,R,ugm-3
06-01-2003,10:00,,,,103,R,ugm-3,82,R,ugm-3,239,R,ugm-3
06-01-2003,11:00,,,,68,R,ugm-3,76,R,ugm-3,180,R,ugm-3
06-01-2003,12:00,,,,51,R,ugm-3,67,R,ugm-3,145,R,ugm-3
06-01-2003,13:00,,,,40,R,ugm-3,67,R,ugm-3,128,R,ugm-3
06-01-2003,14:00,,,,30,R,ugm-3,59,R,ugm-3,105,R,ugm-3
06-01-2003,15:00,,,,40,R,ugm-3,67,R,ugm-3,128,R,ugm-3
06-01-2003,16:00,,,,46,R,ugm-3,74,R,ugm-3,145,R,ugm-3
06-01-2003,17:00,,,,30,R,ugm-3,71,R,ugm-3,117,R,ugm-3
06-01-2003,18:00,,,,45,R,ugm-3,78,R,ugm-3,147,R,ugm-3
06-01-2003,19:00,,,,19,R,ugm-3,69,R,ugm-3,97,R,ugm-3
06-01-2003,20:00,,,,16,R,ugm-3,63,R,ugm-3,88,R,ugm-3
06-01-2003,21:00,,,,15,R,ugm-3,59,R,ugm-3,82,R,ugm-3
06-01-2003,22:00,,,,9,R,ugm-3,53,R,ugm-3,67,R,ugm-3
06-01-2003,23:00,,,,11,R,ugm-3,48,R,ugm-3,65,R,ugm-3
06-01-2003,24:00,,,,9,R,ugm-3,53,R,ugm-3,67,R,ugm-3
07-01-2003,01:00,,,,8,R,ugm-3,48,R,ugm-3,59,R,ugm-3
07-01-2003,02:00,,,,5,R,ugm-3,38,R,ugm-3,46,R,ugm-3
07-01-2003,03:00,,,,4,R,ugm-3,40,R,ugm-3,46,R,ugm-3
07-01-2003,04:00,,,,8,R,ugm-3,48,R,ugm-3,59,R,ugm-3
07-01-2003,05:00,,,,3,R,ugm-3,23,R,ugm-3,27,R,ugm-3
07-01-2003,06:00,,,,4,R,ugm-3,27,R,ugm-3,32,R,ugm-3
07-01-2003,07:00,,,,6,R,ugm-3,34,R,ugm-3,44,R,ugm-3
07-01-2003,08:00,,,,8,R,ugm-3,36,R,ugm-3,48,R,ugm-3
07-01-2003,09:00,,,,40,R,ugm-3,69,R,ugm-3,130,R,ugm-3
07-01-2003,10:00,,,,26,R,ugm-3,63,R,ugm-3,103,R,ugm-3
07-01-2003,11:00,,,,26,R,ugm-3,57,R,ugm-3,97,R,ugm-3
07-01-2003,12:00,,,,19,R,ugm-3,46,R,ugm-3,74,R,ugm-3
07-01-2003,13:00,,,,21,R,ugm-3,50,R,ugm-3,82,R,ugm-3
07-01-2003,14:00,,,,21,R,ugm-3,42,R,ugm-3,74,R,ugm-3
07-01-2003,15:00,,,,16,R,ugm-3,44,R,ugm-3,69,R,ugm-3
07-01-2003,16:00,,,,31,R,ugm-3,59,R,ugm-3,107,R,ugm-3
07-01-2003,17:00,,,,41,R,ugm-3,57,R,ugm-3,120,R,ugm-3
07-01-2003,18:00,,,,78,R,ugm-3,71,R,ugm-3,189,R,ugm-3
07-01-2003,19:00,,,,81,R,ugm-3,73,R,ugm-3,197,R,ugm-3
07-01-2003,20:00,,,,68,R,ugm-3,71,R,ugm-3,174,R,ugm-3
07-01-2003,21:00,,,,73,R,ugm-3,73,R,ugm-3,183,R,ugm-3
07-01-2003,22:00,,,,70,R,ugm-3,74,R,ugm-3,181,R,ugm-3
07-01-2003,23:00,,,,54,R,ugm-3,73,R,ugm-3,155,R,ugm-3
07-01-2003,24:00,,,,104,R,ugm-3,76,R,ugm-3,235,R,ugm-3
08-01-2003,01:00,,,,68,R,ugm-3,69,R,ugm-3,172,R,ugm-3
08-01-2003,02:00,,,,64,R,ugm-3,71,R,ugm-3,168,R,ugm-3
08-01-2003,03:00,,,,41,R,ugm-3,67,R,ugm-3,130,R,ugm-3
08-01-2003,04:00,,,,18,R,ugm-3,57,R,ugm-3,84,R,ugm-3
08-01-2003,05:00,,,,4,R,ugm-3,44,R,ugm-3,50,R,ugm-3
08-01-2003,06:00,,,,48,R,ugm-3,67,R,ugm-3,139,R,ugm-3
08-01-2003,07:00,,,,60,R,ugm-3,67,R,ugm-3,159,R,ugm-3
08-01-2003,08:00,,,,25,R,ugm-3,63,R,ugm-3,101,R,ugm-3
08-01-2003,09:00,,,,54,R,ugm-3,69,R,ugm-3,151,R,ugm-3
08-01-2003,10:00,,,,46,R,ugm-3,65,R,ugm-3,136,R,ugm-3
08-01-2003,11:00,,,,36,R,ugm-3,57,R,ugm-3,113,R,ugm-3
08-01-2003,12:00,,,,26,R,ugm-3,53,R,ugm-3,94,R,ugm-3
08-01-2003,13:00,,,,18,R,ugm-3,48,R,ugm-3,74,R,ugm-3
08-01-2003,14:00,,,,16,R,ugm-3,53,R,ugm-3,78,R,ugm-3
08-01-2003,15:00,,,,,,,,,,,,
08-01-2003,16:00,,,,21,R,ugm-3,61,R,ugm-3,94,R,ugm-3
08-01-2003,17:00,,,,45,R,ugm-3,76,R,ugm-3,145,R,ugm-3
08-01-2003,18:00,,,,59,R,ugm-3,74,R,ugm-3,164,R,ugm-3
08-01-2003,19:00,,,,40,R,ugm-3,73,R,ugm-3,134,R,ugm-3
08-01-2003,20:00,,,,21,R,ugm-3,69,R,ugm-3,101,R,ugm-3
08-01-2003,21:00,,,,11,R,ugm-3,57,R,ugm-3,74,R,ugm-3
08-01-2003,22:00,,,,9,R,ugm-3,50,R,ugm-3,63,R,ugm-3
08-01-2003,23:00,,,,6,R,ugm-3,40,R,ugm-3,50,R,ugm-3
08-01-2003,24:00,,,,9,R,ugm-3,48,R,ugm-3,61,R,ugm-3
09-01-2003,01:00,,,,3,R,ugm-3,34,R,ugm-3,38,R,ugm-3
09-01-2003,02:00,,,,3,R,ugm-3,17,R,ugm-3,21,R,ugm-3
09-01-2003,03:00,,,,3,R,ugm-3,13,R,ugm-3,17,R,ugm-3
09-01-2003,04:00,,,,3,R,ugm-3,10,R,ugm-3,13,R,ugm-3
09-01-2003,05:00,,,,3,R,ugm-3,13,R,ugm-3,17,R,ugm-3
09-01-2003,06:00,,,,3,R,ugm-3,17,R,ugm-3,21,R,ugm-3
09-01-2003,07:00,,,,4,R,ugm-3,31,R,ugm-3,36,R,ugm-3
09-01-2003,08:00,,,,18,R,ugm-3,53,R,ugm-3,80,R,ugm-3
09-01-2003,09:00,,,,50,R,ugm-3,73,R,ugm-3,149,R,ugm-3
09-01-2003,10:00,,,,35,R,ugm-3,65,R,ugm-3,118,R,ugm-3
09-01-2003,11:00,,,,31,R,ugm-3,59,R,ugm-3,107,R,ugm-3
09-01-2003,12:00,,,,23,R,ugm-3,48,R,ugm-3,82,R,ugm-3
09-01-2003,13:00,,,,13,R,ugm-3,40,R,ugm-3,59,R,ugm-3
09-01-2003,14:00,,,,16,R,ugm-3,46,R,ugm-3,71,R,ugm-3
09-01-2003,15:00,,,,16,R,ugm-3,48,R,ugm-3,73,R,ugm-3
09-01-2003,16:00,,,,9,R,ugm-3,46,R,ugm-3,59,R,ugm-3
09-01-2003,17:00,,,,8,R,ugm-3,46,R,ugm-3,57,R,ugm-3
09-01-2003,18:00,,,,13,R,ugm-3,53,R,ugm-3,73,R,ugm-3
09-01-2003,19:00,,,,9,R,ugm-3,57,R,ugm-3,71,R,ugm-3
09-01-2003,20:00,,,,8,R,ugm-3,55,R,ugm-3,67,R,ugm-3
09-01-2003,21:00,,,,5,R,ugm-3,40,R,ugm-3,48,R,ugm-3
09-01-2003,22:00,,,,8,R,ugm-3,48,R,ugm-3,59,R,ugm-3
09-01-2003,23:00,,,,3,R,ugm-3,29,R,ugm-3,32,R,ugm-3
09-01-2003,24:00,,,,3,R,ugm-3,19,R,ugm-3,23,R,ugm-3
10-01-2003,01:00,,,,3,R,ugm-3,17,R,ugm-3,21,R,ugm-3
10-01-2003,02:00,,,,3,R,ugm-3,8,R,ugm-3,11,R,ugm-3
10-01-2003,03:00,,,,3,R,ugm-3,8,R,ugm-3,11,R,ugm-3
10-01-2003,04:00,,,,3,R,ugm-3,6,R,ugm-3,10,R,ugm-3
10-01-2003,05:00,,,,3,R,ugm-3,6,R,ugm-3,10,R,ugm-3
10-01-2003,06:00,,,,4,R,ugm-3,29,R,ugm-3,34,R,ugm-3
10-01-2003,07:00,,,,25,R,ugm-3,63,R,ugm-3,101,R,ugm-3
10-01-2003,08:00,,,,19,R,ugm-3,53,R,ugm-3,82,R,ugm-3
10-01-2003,09:00,,,,70,R,ugm-3,80,R,ugm-3,187,R,ugm-3
10-01-2003,10:00,,,,56,R,ugm-3,71,R,ugm-3,157,R,ugm-3
10-01-2003,11:00,,,,45,R,ugm-3,61,R,ugm-3,130,R,ugm-3
10-01-2003,12:00,,,,10,R,ugm-3,34,R,ugm-3,50,R,ugm-3
10-01-2003,13:00,,,,9,R,ugm-3,31,R,ugm-3,44,R,ugm-3
10-01-2003,14:00,,,,8,R,ugm-3,27,R,ugm-3,38,R,ugm-3
10-01-2003,15:00,,,,10,R,ugm-3,34,R,ugm-3,50,R,ugm-3
10-01-2003,16:00,,,,9,R,ugm-3,36,R,ugm-3,50,R,ugm-3
10-01-2003,17:00,,,,10,R,ugm-3,53,R,ugm-3,69,R,ugm-3
10-01-2003,18:00,,,,11,R,ugm-3,53,R,ugm-3,71,R,ugm-3
10-01-2003,19:00,,,,10,R,ugm-3,53,R,ugm-3,69,R,ugm-3
10-01-2003,20:00,,,,9,R,ugm-3,52,R,ugm-3,65,R,ugm-3
10-01-2003,21:00,,,,9,R,ugm-3,46,R,ugm-3,59,R,ugm-3
10-01-2003,22:00,,,,6,R,ugm-3,32,R,ugm-3,42,R,ugm-3
10-01-2003,23:00,,,,6,R,ugm-3,36,R,ugm-3,46,R,ugm-3
10-01-2003,24:00,,,,9,R,ugm-3,36,R,ugm-3,50,R,ugm-3
11-01-2003,01:00,,,,4,R,ugm-3,36,R,ugm-3,42,R,ugm-3
11-01-2003,02:00,,,,6,R,ugm-3,31,R,ugm-3,40,R,ugm-3
11-01-2003,03:00,,,,5,R,ugm-3,38,R,ugm-3,46,R,ugm-3
11-01-2003,04:00,,,,8,R,ugm-3,42,R,ugm-3,53,R,ugm-3
11-01-2003,05:00,,,,48,R,ugm-3,59,R,ugm-3,132,R,ugm-3
11-01-2003,06:00,,,,14,R,ugm-3,44,R,ugm-3,65,R,ugm-3
11-01-2003,07:00,,,,133,R,ugm-3,69,R,ugm-3,271,R,ugm-3
11-01-2003,08:00,,,,251,R,ugm-3,82,R,ugm-3,466,R,ugm-3
11-01-2003,09:00,,,,135,R,ugm-3,69,R,ugm-3,275,R,ugm-3
11-01-2003,10:00,,,,179,R,ugm-3,74,R,ugm-3,348,R,ugm-3
11-01-2003,11:00,,,,99,R,ugm-3,67,R,ugm-3,218,R,ugm-3
11-01-2003,12:00,,,,75,R,ugm-3,61,R,ugm-3,176,R,ugm-3
11-01-2003,13:00,,,,46,R,ugm-3,57,R,ugm-3,128,R,ugm-3
11-01-2003,14:00,,,,54,R,ugm-3,57,R,ugm-3,139,R,ugm-3
11-01-2003,15:00,,,,109,R,ugm-3,57,R,ugm-3,223,R,ugm-3
11-01-2003,16:00,,,,123,R,ugm-3,61,R,ugm-3,248,R,ugm-3
11-01-2003,17:00,,,,129,R,ugm-3,69,R,ugm-3,265,R,ugm-3
11-01-2003,18:00,,,,134,R,ugm-3,63,R,ugm-3,267,R,ugm-3
11-01-2003,19:00,,,,146,R,ugm-3,61,R,ugm-3,285,R,ugm-3
11-01-2003,20:00,,,,159,R,ugm-3,69,R,ugm-3,311,R,ugm-3
11-01-2003,21:00,,,,174,R,ugm-3,69,R,ugm-3,334,R,ugm-3
11-01-2003,22:00,,,,148,R,ugm-3,65,R,ugm-3,290,R,ugm-3
11-01-2003,23:00,,,,119,R,ugm-3,59,R,ugm-3,241,R,ugm-3
11-01-2003,24:00,,,,106,R,ugm-3,61,R,ugm-3,223,R,ugm-3
12-01-2003,01:00,,,,33,R,ugm-3,53,R,ugm-3,103,R,ugm-3
12-01-2003,02:00,,,,35,R,ugm-3,48,R,ugm-3,101,R,ugm-3
12-01-2003,03:00,,,,65,R,ugm-3,74,R,ugm-3,174,R,ugm-3
12-01-2003,04:00,,,,55,R,ugm-3,73,R,ugm-3,157,R,ugm-3
12-01-2003,05:00,,,,35,R,ugm-3,61,R,ugm-3,115,R,ugm-3
12-01-2003,06:00,,,,25,R,ugm-3,53,R,ugm-3,92,R,ugm-3
12-01-2003,07:00,,,,15,R,ugm-3,63,R,ugm-3,86,R,ugm-3
12-01-2003,08:00,,,,21,R,ugm-3,59,R,ugm-3,92,R,ugm-3
12-01-2003,09:00,,,,26,R,ugm-3,63,R,ugm-3,103,R,ugm-3
12-01-2003,10:00,,,,23,R,ugm-3,48,R,ugm-3,82,R,ugm-3
12-01-2003,11:00,,,,30,R,ugm-3,46,R,ugm-3,92,R,ugm-3
12-01-2003,12:00,,,,25,R,ugm-3,36,R,ugm-3,74,R,ugm-3
12-01-2003,13:00,,,,25,R,ugm-3,32,R,ugm-3,71,R,ugm-3
12-01-2003,14:00,,,,21,R,ugm-3,42,R,ugm-3,74,R,ugm-3
12-01-2003,15:00,,,,31,R,ugm-3,48,R,ugm-3,96,R,ugm-3
12-01-2003,16:00,,,,33,R,ugm-3,48,R,ugm-3,97,R,ugm-3
12-01-2003,17:00,,,,60,R,ugm-3,71,R,ugm-3,162,R,ugm-3
12-01-2003,18:00,,,,25,R,ugm-3,44,R,ugm-3,82,R,ugm-3
12-01-2003,19:00,,,,11,R,ugm-3,31,R,ugm-3,48,R,ugm-3
12-01-2003,20:00,,,,19,R,ugm-3,38,R,ugm-3,67,R,ugm-3
12-01-2003,21:00,,,,30,R,ugm-3,48,R,ugm-3,94,R,ugm-3
12-01-2003,22:00,,,,11,R,ugm-3,31,R,ugm-3,48,R,ugm-3
12-01-2003,23:00,,,,15,R,ugm-3,38,R,ugm-3,61,R,ugm-3
12-01-2003,24:00,,,,13,R,ugm-3,38,R,ugm-3,57,R,ugm-3
13-01-2003,01:00,,,,9,R,ugm-3,36,R,ugm-3,50,R,ugm-3
13-01-2003,02:00,,,,3,R,ugm-3,11,R,ugm-3,15,R,ugm-3
13-01-2003,03:00,,,,3,R,ugm-3,13,R,ugm-3,17,R,ugm-3
13-01-2003,04:00,,,,3,R,ugm-3,17,R,ugm-3,21,R,ugm-3
13-01-2003,05:00,,,,4,R,ugm-3,19,R,ugm-3,25,R,ugm-3
13-01-2003,06:00,,,,10,R,ugm-3,25,R,ugm-3,40,R,ugm-3
13-01-2003,07:00,,,,19,R,ugm-3,31,R,ugm-3,59,R,ugm-3
13-01-2003,08:00,,,,29,R,ugm-3,48,R,ugm-3,92,R,ugm-3
13-01-2003,09:00,,,,28,R,ugm-3,44,R,ugm-3,86,R,ugm-3
13-01-2003,10:00,,,,25,R,ugm-3,40,R,ugm-3,78,R,ugm-3
13-01-2003,11:00,,,,26,R,ugm-3,42,R,ugm-3,82,R,ugm-3
13-01-2003,12:00,,,,29,R,ugm-3,40,R,ugm-3,84,R,ugm-3
13-01-2003,13:00,,,,39,R,ugm-3,61,R,ugm-3,120,R,ugm-3
13-01-2003,14:00,,,,38,R,ugm-3,52,R,ugm-3,109,R,ugm-3
13-01-2003,15:00,,,,30,R,ugm-3,42,R,ugm-3,88,R,ugm-3
13-01-2003,16:00,,,,29,R,ugm-3,48,R,ugm-3,92,R,ugm-3
13-01-2003,17:00,,,,53,R,ugm-3,67,R,ugm-3,147,R,ugm-3
13-01-2003,18:00,,,,28,R,ugm-3,52,R,ugm-3,94,R,ugm-3
13-01-2003,19:00,,,,28,R,ugm-3,53,R,ugm-3,96,R,ugm-3
13-01-2003,20:00,,,,36,R,ugm-3,55,R,ugm-3,111,R,ugm-3
13-01-2003,21:00,,,,19,R,ugm-3,42,R,ugm-3,71,R,ugm-3
13-01-2003,22:00,,,,10,R,ugm-3,29,R,ugm-3,44,R,ugm-3
13-01-2003,23:00,,,,9,R,ugm-3,19,R,ugm-3,32,R,ugm-3
13-01-2003,24:00,,,,14,R,ugm-3,38,R,ugm-3,59,R,ugm-3
14-01-2003,01:00,,,,10,R,ugm-3,27,R,ugm-3,42,R,ugm-3
14-01-2003,02:00,,,,8,R,ugm-3,31,R,ugm-3,42,R,ugm-3
14-01-2003,03:00,,,,4,R,ugm-3,17,R,ugm-3,23,R,ugm-3
14-01-2003,04:00,,,,8,R,ugm-3,23,R,ugm-3,34,R,ugm-3
14-01-2003,05:00,,,,20,R,ugm-3,44,R,ugm-3,74,R,ugm-3
14-01-2003,06:00,,,,16,R,ugm-3,36,R,ugm-3,61,R,ugm-3
14-01-2003,07:00,,,,26,R,ugm-3,44,R,ugm-3,84,R,ugm-3
14-01-2003,08:00,,,,30,R,ugm-3,46,R,ugm-3,92,R,ugm-3
14-01-2003,09:00,,,,29,R,ugm-3,48,R,ugm-3,92,R,ugm-3
14-01-2003,10:00,,,,29,R,ugm-3,46,R,ugm-3,90,R,ugm-3
14-01-2003,11:00,,,,29,R,ugm-3,42,R,ugm-3,86,R,ugm-3
14-01-2003,12:00,,,,35,R,ugm-3,52,R,ugm-3,105,R,ugm-3
14-01-2003,13:00,,,,,,,,,,,,
14-01-2003,14:00,,,,36,R,ugm-3,61,R,ugm-3,117,R,ugm-3
14-01-2003,15:00,,,,30,R,ugm-3,57,R,ugm-3,103,R,ugm-3
14-01-2003,16:00,,,,26,R,ugm-3,53,R,ugm-3,94,R,ugm-3
14-01-2003,17:00,,,,23,R,ugm-3,55,R,ugm-3,90,R,ugm-3
14-01-2003,18:00,,,,18,R,ugm-3,38,R,ugm-3,65,R,ugm-3
14-01-2003,19:00,,,,24,R,ugm-3,46,R,ugm-3,82,R,ugm-3
14-01-2003,20:00,,,,21,R,ugm-3,36,R,ugm-3,69,R,ugm-3
14-01-2003,21:00,,,,24,R,ugm-3,36,R,ugm-3,73,R,ugm-3
14-01-2003,22:00,,,,28,R,ugm-3,46,R,ugm-3,88,R,ugm-3
14-01-2003,23:00,,,,24,R,ugm-3,38,R,ugm-3,74,R,ugm-3
14-01-2003,24:00,,,,25,R,ugm-3,38,R,ugm-3,76,R,ugm-3
15-01-2003,01:00,,,,23,R,ugm-3,38,R,ugm-3,73,R,ugm-3
15-01-2003,02:00,,,,21,R,ugm-3,48,R,ugm-3,80,R,ugm-3
15-01-2003,03:00,,,,33,R,ugm-3,61,R,ugm-3,111,R,ugm-3
15-01-2003,04:00,,,,30,R,ugm-3,52,R,ugm-3,97,R,ugm-3
15-01-2003,05:00,,,,29,R,ugm-3,44,R,ugm-3,88,R,ugm-3
15-01-2003,06:00,,,,35,R,ugm-3,52,R,ugm-3,105,R,ugm-3
15-01-2003,07:00,,,,54,R,ugm-3,67,R,ugm-3,149,R,ugm-3
15-01-2003,08:00,,,,53,R,ugm-3,57,R,ugm-3,138,R,ugm-3
15-01-2003,09:00,,,,64,R,ugm-3,73,R,ugm-3,170,R,ugm-3
15-01-2003,10:00,,,,101,R,ugm-3,94,R,ugm-3,248,R,ugm-3
15-01-2003,11:00,,,,41,R,ugm-3,55,R,ugm-3,118,R,ugm-3
15-01-2003,12:00,,,,39,R,ugm-3,50,R,ugm-3,109,R,ugm-3
15-01-2003,13:00,,,,31,R,ugm-3,46,R,ugm-3,94,R,ugm-3
15-01-2003,14:00,,,,31,R,ugm-3,40,R,ugm-3,88,R,ugm-3
15-01-2003,15:00,,,,35,R,ugm-3,52,R,ugm-3,105,R,ugm-3
15-01-2003,16:00,,,,29,R,ugm-3,48,R,ugm-3,92,R,ugm-3
15-01-2003,17:00,,,,24,R,ugm-3,44,R,ugm-3,80,R,ugm-3
15-01-2003,18:00,,,,18,R,ugm-3,36,R,ugm-3,63,R,ugm-3
15-01-2003,19:00,,,,15,R,ugm-3,34,R,ugm-3,57,R,ugm-3
15-01-2003,20:00,,,,14,R,ugm-3,36,R,ugm-3,57,R,ugm-3
15-01-2003,21:00,,,,10,R,ugm-3,29,R,ugm-3,44,R,ugm-3
15-01-2003,22:00,,,,10,R,ugm-3,27,R,ugm-3,42,R,ugm-3
15-01-2003,23:00,,,,9,R,ugm-3,25,R,ugm-3,38,R,ugm-3
15-01-2003,24:00,,,,6,R,ugm-3,23,R,ugm-3,32,R,ugm-3
16-01-2003,01:00,,,,4,R,ugm-3,19,R,ugm-3,25,R,ugm-3
16-01-2003,02:00,,,,5,R,ugm-3,21,R,ugm-3,29,R,ugm-3
16-01-2003,03:00,,,,4,R,ugm-3,25,R,ugm-3,31,R,ugm-3
16-01-2003,04:00,,,,6,R,ugm-3,25,R,ugm-3,34,R,ugm-3
16-01-2003,05:00,,,,10,R,ugm-3,32,R,ugm-3,48,R,ugm-3
16-01-2003,06:00,,,,18,R,ugm-3,36,R,ugm-3,63,R,ugm-3
16-01-2003,07:00,,,,39,R,ugm-3,50,R,ugm-3,109,R,ugm-3
16-01-2003,08:00,,,,45,R,ugm-3,59,R,ugm-3,128,R,ugm-3
16-01-2003,09:00,,,,46,R,ugm-3,61,R,ugm-3,132,R,ugm-3
16-01-2003,10:00,,,,54,R,ugm-3,67,R,ugm-3,149,R,ugm-3
16-01-2003,11:00,,,,39,R,ugm-3,50,R,ugm-3,109,R,ugm-3
16-01-2003,12:00,,,,36,R,ugm-3,59,R,ugm-3,115,R,ugm-3
16-01-2003,13:00,,,,38,R,ugm-3,61,R,ugm-3,118,R,ugm-3
16-01-2003,14:00,,,,33,R,ugm-3,42,R,ugm-3,92,R,ugm-3
16-01-2003,15:00,,,,30,R,ugm-3,46,R,ugm-3,92,R,ugm-3
16-01-2003,16:00,,,,28,R,ugm-3,48,R,ugm-3,90,R,ugm-3
16-01-2003,17:00,,,,16,R,ugm-3,42,R,ugm-3,67,R,ugm-3
16-01-2003,18:00,,,,15,R,ugm-3,38,R,ugm-3,61,R,ugm-3
16-01-2003,19:00,,,,19,R,ugm-3,40,R,ugm-3,69,R,ugm-3
16-01-2003,20:00,,,,28,R,ugm-3,38,R,ugm-3,80,R,ugm-3
16-01-2003,21:00,,,,31,R,ugm-3,42,R,ugm-3,90,R,ugm-3
16-01-2003,22:00,,,,34,R,ugm-3,50,R,ugm-3,101,R,ugm-3
16-01-2003,23:00,,,,40,R,ugm-3,53,R,ugm-3,115,R,ugm-3
16-01-2003,24:00,,,,13,R,ugm-3,23,R,ugm-3,42,R,ugm-3
17-01-2003,01:00,,,,5,R,ugm-3,15,R,ugm-3,23,R,ugm-3
17-01-2003,02:00,,,,14,R,ugm-3,36,R,ugm-3,57,R,ugm-3
17-01-2003,03:00,,,,11,R,ugm-3,31,R,ugm-3,48,R,ugm-3
17-01-2003,04:00,,,,13,R,ugm-3,29,R,ugm-3,48,R,ugm-3
17-01-2003,05:00,,,,28,R,ugm-3,34,R,ugm-3,76,R,ugm-3
17-01-2003,06:00,,,,15,R,ugm-3,27,R,ugm-3,50,R,ugm-3
17-01-2003,07:00,,,,23,R,ugm-3,38,R,ugm-3,73,R,ugm-3
17-01-2003,08:00,,,,23,R,ugm-3,34,R,ugm-3,69,R,ugm-3
17-01-2003,09:00,,,,21,R,ugm-3,32,R,ugm-3,65,R,ugm-3
17-01-2003,10:00,,,,25,R,ugm-3,32,R,ugm-3,71,R,ugm-3
17-01-2003,11:00,,,,25,R,ugm-3,36,R,ugm-3,74,R,ugm-3
17-01-2003,12:00,,,,34,R,ugm-3,40,R,ugm-3,92,R,ugm-3
17-01-2003,13:00,,,,38,R,ugm-3,57,R,ugm-3,115,R,ugm-3
17-01-2003,14:00,,,,49,R,ugm-3,65,R,ugm-3,139,R,ugm-3
17-01-2003,15:00,,,,45,R,ugm-3,65,R,ugm-3,134,R,ugm-3
17-01-2003,16:00,,,,43,R,ugm-3,59,R,ugm-3,124,R,ugm-3
17-01-2003,17:00,,,,35,R,ugm-3,63,R,ugm-3,117,R,ugm-3
17-01-2003,18:00,,,,49,R,ugm-3,76,R,ugm-3,151,R,ugm-3
17-01-2003,19:00,,,,29,R,ugm-3,55,R,ugm-3,99,R,ugm-3
17-01-2003,20:00,,,,19,R,ugm-3,38,R,ugm-3,67,R,ugm-3
17-01-2003,21:00,,,,11,R,ugm-3,38,R,ugm-3,55,R,ugm-3
17-01-2003,22:00,,,,28,R,ugm-3,53,R,ugm-3,96,R,ugm-3
17-01-2003,23:00,,,,70,R,ugm-3,74,R,ugm-3,181,R,ugm-3
17-01-2003,24:00,,,,44,R,ugm-3,71,R,ugm-3,138,R,ugm-3
18-01-2003,01:00,,,,61,R,ugm-3,73,R,ugm-3,166,R,ugm-3
18-01-2003,02:00,,,,8,R,ugm-3,25,R,ugm-3,36,R,ugm-3
18-01-2003,03:00,,,,58,R,ugm-3,59,R,ugm-3,147,R,ugm-3
18-01-2003,04:00,,,,59,R,ugm-3,65,R,ugm-3,155,R,ugm-3
18-01-2003,05:00,,,,44,R,ugm-3,63,R,ugm-3,130,R,ugm-3
18-01-2003,06:00,,,,25,R,ugm-3,46,R,ugm-3,84,R,ugm-3
18-01-2003,07:00,,,,69,R,ugm-3,71,R,ugm-3,176,R,ugm-3
18-01-2003,08:00,,,,21,R,ugm-3,50,R,ugm-3,82,R,ugm-3
18-01-2003,09:00,,,,34,R,ugm-3,50,R,ugm-3,101,R,ugm-3
18-01-2003,10:00,,,,23,R,ugm-3,40,R,ugm-3,74,R,ugm-3
18-01-2003,11:00,,,,24,R,ugm-3,46,R,ugm-3,82,R,ugm-3
18-01-2003,12:00,,,,49,R,ugm-3,52,R,ugm-3,126,R,ugm-3
18-01-2003,13:00,,,,29,R,ugm-3,44,R,ugm-3,88,R,ugm-3
18-01-2003,14:00,,,,24,R,ugm-3,42,R,ugm-3,78,R,ugm-3
18-01-2003,15:00,,,,10,R,ugm-3,36,R,ugm-3,52,R,ugm-3
18-01-2003,16:00,,,,15,R,ugm-3,42,R,ugm-3,65,R,ugm-3
18-01-2003,17:00,,,,13,R,ugm-3,40,R,ugm-3,59,R,ugm-3
18-01-2003,18:00,,,,8,R,ugm-3,34,R,ugm-3,46,R,ugm-3
18-01-2003,19:00,,,,9,R,ugm-3,34,R,ugm-3,48,R,ugm-3
18-01-2003,20:00,,,,6,R,ugm-3,42,R,ugm-3,52,R,ugm-3
18-01-2003,21:00,,,,4,R,ugm-3,38,R,ugm-3,44,R,ugm-3
18-01-2003,22:00,,,,5,R,ugm-3,31,R,ugm-3,38,R,ugm-3
18-01-2003,23:00,,,,3,R,ugm-3,17,R,ugm-3,21,R,ugm-3
18-01-2003,24:00,,,,3,R,ugm-3,11,R,ugm-3,15,R,ugm-3
19-01-2003,01:00,,,,3,R,ugm-3,13,R,ugm-3,17,R,ugm-3
19-01-2003,02:00,,,,1,R,ugm-3,11,R,ugm-3,13,R,ugm-3
19-01-2003,03:00,,,,3,R,ugm-3,13,R,ugm-3,17,R,ugm-3
19-01-2003,04:00,,,,3,R,ugm-3,17,R,ugm-3,21,R,ugm-3
19-01-2003,05:00,,,,3,R,ugm-3,21,R,ugm-3,25,R,ugm-3
19-01-2003,06:00,,,,3,R,ugm-3,25,R,ugm-3,29,R,ugm-3
19-01-2003,07:00,,,,9,R,ugm-3,38,R,ugm-3,52,R,ugm-3
19-01-2003,08:00,,,,29,R,ugm-3,44,R,ugm-3,88,R,ugm-3
19-01-2003,09:00,,,,50,R,ugm-3,50,R,ugm-3,126,R,ugm-3
19-01-2003,10:00,,,,26,R,ugm-3,40,R,ugm-3,80,R,ugm-3
19-01-2003,11:00,,,,16,R,ugm-3,44,R,ugm-3,69,R,ugm-3
19-01-2003,12:00,,,,18,R,ugm-3,46,R,ugm-3,73,R,ugm-3
19-01-2003,13:00,,,,16,R,ugm-3,46,R,ugm-3,71,R,ugm-3
19-01-2003,14:00,,,,30,R,ugm-3,61,R,ugm-3,107,R,ugm-3
19-01-2003,15:00,,,,31,R,ugm-3,63,R,ugm-3,111,R,ugm-3
19-01-2003,16:00,,,,31,R,ugm-3,63,R,ugm-3,111,R,ugm-3